MIDAS 3 DEB, 188

Orbit data source: Space-Track

MIDAS 3 DEB, 188 is space debris in LEO originally from a launch on Wed, 12 Jul 1961 UTC launched from the Air Force Western Test Range (AFWTR). Debris objects in space refer to the collection of defunct objects orbiting the Earth. Examples of debris include non-operational satellites, rocket bodies, and fragments generated from explosions, collisions, or faulty payload assembly.

Loading next visibility...
MIDAS 3 DEB details
Identifier
188, 1961-018C
Orbit
LEO
Last TLE update1 day ago
Origin
Flag of USUSAF SSD (US)
ManufacturerUnknown
MissionSpacecraft
Bus & MotorUnknown
Mass~10 kg wet, ~10 kg dry
Launch date (UTC)
1961-07-12 (63 years ago)
Launch vehicleUnknown
Launch site
Air Force Western Test Range (AFWTR)
Object type
Payload
Rocket body
Debris
Shape & HBRUnknown
Radar Cross SectionMedium (>0.1 m² and <1 m²)

Expand to show TLE details & history

TLE from 1 day ago
0 MIDAS 3 DEB
1 00188U 61018C   24355.46147884 -.00000029  00000-0 -10329-1 0  9993
2 00188  91.0870 184.7052 0131850 256.7584 101.8553  8.93835237 69619
Epoch: 2024-12-20T11:04Z
Definitive object data (Epoch: 2024-12-20T11:04:31.771Z)
Latitude-0.0001°
Longitude-70.95383°
Altitude3,459.919 km
Speed6.357 km/s
True Right ascension12h 18m 49s
True Declination0° 00' 00"
Sunlit
Object was in daylight at TLE epoch
Visualization TLE readout
Latitude-59.24663°
Longitude107.27157°
Altitude3,328.101 km
Speed6.45 km/s
Apparent Right ascension00h 08m 14s
Apparent Declination-51° 27' 35"
Sunlit
Object is in daylight
Visualization observer readout
Local Sidereal Time12:04:42
Azimuth182.747° SSW
Elevation-78.44°
Doppler factor1
Orbital elements
Apogee altitude3,556.528 km
Perigee altitude3,297.96 km
Semi-major axis9,805.381 km
Eccentricity0.013185
Inclination91.087°
RAAN184.7052°
Arg. of periapsis256.7584°
True anomaly103.32881°
Mean anomaly101.8553°
Eccentric anomaly102.59257°
Mean motion2.23535 °/min
BSTAR-0.010329
Orbital period161.05 mins
Loading maneuver chart data...
Loading historical data...
Loading historical data...
Loading historical data...
Loading historical data...
Loading historical data...
Loading historical data...
Loading historical data...

MIDAS 3 DEB Visibility forecast

Observer location: undefined°, undefined

Span
Click to sort rows by Start time (UTC) header in descending order
Start Az.
Max El. time (UTC)
Max El. Az.
Max El.
End time (UTC)
End Az.
35 mins2024-12-21 13:56:48.435Z195.865° SSW2024-12-21 14:13:48.435Z270.469° WNW40.575°2024-12-21 14:31:48.435Z352.516° N
28 mins2024-12-21 22:48:48.435Z18.687° NNE2024-12-21 23:02:48.435Z75.223° E26.773°2024-12-21 23:16:48.435Z129.847° SE
34 mins2024-12-22 01:27:48.435Z0.571° NNE2024-12-22 01:44:48.435Z269.245° W44.128°2024-12-22 02:01:48.435Z198.477° SSW
19 mins2024-12-22 04:10:48.435Z342.108° N2024-12-22 04:19:48.435Z309.034° NW18.625°2024-12-22 04:29:48.435Z272.735° WNW
32 mins2024-12-22 11:29:48.435Z135.668° SSE2024-12-22 11:44:48.435Z72.848° E36.979°2024-12-22 12:01:48.435Z3.256° NNE
|